This is the latest recevied weather packets stored in our database for station/object 4S6DRJ-13. If no packets are shown the sender has not sent any weather packets the latest 10 day(s).
| Time | Temp. | Humidity | Pressure | Rain* | Wind** | Luminosity | Snow |
|---|---|---|---|---|---|---|---|
| 1788226058 | 26.67° C | 91% | 1008.2 hPa | 0 mm | 0 m/s | 38 W/m² | - |
| 1788225997 | 26.67° C | 91% | 1008.2 hPa | 0 mm | 0 m/s | 35 W/m² | - |
| 1788225936 | 26.67° C | 91% | 1008.2 hPa | 0 mm | 0 m/s | 35 W/m² | - |
| 1788225875 | 26.67° C | 91% | 1008 hPa | 0.25 mm | 0 m/s | 34 W/m² | - |
| 1788225813 | 26.67° C | 91% | 1008.3 hPa | 0.25 mm | 0 m/s | 34 W/m² | - |
| 1788225753 | 26.67° C | 91% | 1008.2 hPa | 0.25 mm | 0 m/s | 34 W/m² | - |
| 1788225691 | 26.67° C | 91% | 1008.3 hPa | 0.25 mm | 0 m/s | 33 W/m² | - |
| 1788225631 | 26.67° C | 91% | 1008.2 hPa | 0.25 mm | 0 m/s | 32 W/m² | - |
| 1788225570 | 26.67° C | 91% | 1008.2 hPa | 0.25 mm | 0 m/s | 32 W/m² | - |
| 1788225509 | 26.67° C | 91% | 1008.1 hPa | 0.25 mm | 0 m/s | 32 W/m² | - |
| 1788225449 | 26.67° C | 91% | 1007.9 hPa | 0.25 mm | 0 m/s | 32 W/m² | - |
| 1788225388 | 26.67° C | 91% | 1008.1 hPa | 0.25 mm | 0 m/s | 32 W/m² | - |
| 1788225326 | 26.67° C | 91% | 1008.2 hPa | 0.25 mm | 0 m/s | 31 W/m² | - |
| 1788225265 | 26.67° C | 92% | 1007.9 hPa | 0.25 mm | 0 m/s | 31 W/m² | - |
| 1788225205 | 26.67° C | 92% | 1008 hPa | 0.25 mm | 0 m/s | 29 W/m² | - |
| 1788225143 | 26.67° C | 92% | 1007.9 hPa | 0.25 mm | 0 m/s | 29 W/m² | - |
| 1788225082 | 26.67° C | 91% | 1007.9 hPa | 0.25 mm | 0 m/s | 29 W/m² | - |
| 1788225021 | 26.67° C | 92% | 1008 hPa | 0.25 mm | 0 m/s | 30 W/m² | - |
| 1788224961 | 26.67° C | 92% | 1007.8 hPa | 0.25 mm | 0 m/s | 31 W/m² | - |
| 1788224899 | 26.67° C | 91% | 1008 hPa | 0.25 mm | 0 m/s | 31 W/m² | - |
| 1788224838 | 26.67° C | 92% | 1007.9 hPa | 0.25 mm | 0 m/s | 27 W/m² | - |
| 1788224777 | 26.67° C | 91% | 1008 hPa | 0.25 mm | 0 m/s | 24 W/m² | - |
| 1788224716 | 26.67° C | 91% | 1007.8 hPa | 0.25 mm | 0 m/s | 20 W/m² | - |
| 1788224655 | 26.67° C | 91% | 1007.8 hPa | 0.25 mm | 0 m/s | 16 W/m² | - |
| 1788224594 | 26.67° C | 91% | 1007.9 hPa | 0.25 mm | 0 m/s | 16 W/m² | - |
* Rain latest hour (hover to see other rain measurements)
** Current wind speed in m/s (hover to see current wind gust speed)